This is the latest recevied weather packets stored in our database for station/object KC2BRB-1. If no packets are shown the sender has not sent any weather packets the latest 10 day(s).
| Time | Temp. | Humidity | Pressure | Rain* | Wind** | Luminosity | Snow |
|---|---|---|---|---|---|---|---|
| 1777757552 | 20° C | 93% | 1008.4 hPa | 0.51 mm | - | - | - |
| 1777757447 | 20° C | 93% | 1008.4 hPa | 0.51 mm | - | - | - |
| 1777757253 | 20° C | 93% | 1008.4 hPa | 0.51 mm | - | - | - |
| 1777756053 | 20.56° C | 93% | 1008 hPa | 1.52 mm | - | - | - |
| 1777755533 | 20.56° C | 93% | 1007.4 hPa | 2.03 mm | - | - | - |
| 1777754853 | 20.56° C | 94% | 1007.4 hPa | 1.78 mm | - | - | - |
| 1777754384 | 20.56° C | 94% | 1007.4 hPa | 1.78 mm | - | - | - |
| 1777753353 | 20° C | 92% | 1009.1 hPa | 3.05 mm | - | - | - |
| 1777753053 | 20° C | 92% | 1009.1 hPa | 3.05 mm | - | - | - |
| 1777752968 | 20° C | 91% | 1009.3 hPa | 3.3 mm | - | - | - |
| 1777751853 | 20.56° C | 90% | 1009.4 hPa | 3.05 mm | - | - | - |
| 1777750545 | 21.67° C | 85% | 1008.7 hPa | 1.52 mm | - | - | - |
| 1777749453 | 22.78° C | 84% | 1008.7 hPa | 1.02 mm | - | - | - |
| 1777748853 | 25° C | 76% | 1008.2 hPa | 1.27 mm | - | - | - |
| 1777748253 | 26.67° C | 82% | 1008.3 hPa | 1.02 mm | - | - | - |
| 1777747820 | 26.11° C | 82% | 1008.3 hPa | 1.02 mm | - | - | - |
| 1777747555 | 26.11° C | 82% | 1008.7 hPa | 1.02 mm | - | - | - |
| 1777747053 | 26.11° C | 82% | 1008.7 hPa | 1.02 mm | - | - | - |
| 1777746850 | 26.11° C | 83% | 1008.4 hPa | 1.27 mm | - | - | - |
| 1777746640 | 26.11° C | 83% | 1008.4 hPa | 1.27 mm | - | - | - |
| 1777746402 | 26.11° C | 83% | 1008.4 hPa | 3.05 mm | - | - | - |
| 1777745853 | 26.11° C | 83% | 1008.4 hPa | 3.05 mm | - | - | - |
| 1777745795 | 26.11° C | 85% | 1008.2 hPa | 2.03 mm | - | - | - |
| 1777745343 | 26.11° C | 85% | 1008.2 hPa | 2.03 mm | - | - | - |
| 1777745116 | 26.11° C | 88% | 1008.2 hPa | 2.03 mm | - | - | - |
* Rain latest hour (hover to see other rain measurements)
** Current wind speed in m/s (hover to see current wind gust speed)